GW2617 Weather Reports


Display with metric or nautical units.
time (UTC)temp
F
wind
direction
speed
MPH
gust
MPH
rain 1hr
in
rain 24hr
in
rain mn
in
humidity
%
barometer
mb
20260504205629 83 289 9.0 10.0 0.00 0.00 0.00 26 1003.6
20260504205126 82 294 5.0 6.0 0.00 0.00 0.00 27 1003.7
20260504204625 81 300 8.0 9.0 0.00 0.00 0.00 30 1003.7
20260504204124 81 294 9.0 9.0 0.00 0.00 0.00 28 1003.8
20260504203622 81 300 10.0 10.0 0.00 0.00 0.00 28 1003.7
20260504203119 82 310 13.0 14.0 0.00 0.00 0.00 27 1003.7
20260504202614 82 292 7.0 8.0 0.00 0.00 0.00 29 1003.9
20260504202111 82 295 9.0 14.0 0.00 0.00 0.00 31 1003.6
20260504201608 81 304 4.0 6.0 0.00 0.00 0.00 32 1003.9
20260504201106 80 328 7.0 7.0 0.00 0.00 0.00 33 1003.9
20260504200602 80 318 6.0 7.0 0.00 0.00 0.00 31 1004.0
20260504200059 81 293 7.0 9.0 0.00 0.00 0.00 30 1003.7
20260504195555 82 315 15.0 16.0 0.00 0.00 0.00 30 1003.8
20260504195051 81 297 9.0 9.0 0.00 0.00 0.00 28 1003.8
20260504194548 82 236 8.0 9.0 0.00 0.00 0.00 30 1003.8
20260504194043 81 250 8.0 9.0 0.00 0.00 0.00 31 1003.9
20260504193540 81 260 5.0 7.0 0.00 0.00 0.00 31 1003.9
20260504193039 81 336 3.0 3.0 0.00 0.00 0.00 35 1003.9
20260504192537 81 251 9.0 9.0 0.00 0.00 0.00 31 1004.1
20260504192035 81 237 2.0 2.0 0.00 0.00 0.00 35 1004.1
20260504191532 81 272 7.0 9.0 0.00 0.00 0.00 33 1004.0
20260504191028 80 233 4.0 6.0 0.00 0.00 0.00 34 1004.0
20260504190525 81 267 9.0 11.0 0.00 0.00 0.00 33 1004.3
20260504190021 80 251 4.0 6.0 0.00 0.00 0.00 36 1004.0
20260504185518 81 281 6.0 7.0 0.00 0.00 0.00 34 1004.3
20260504185015 80 228 3.0 4.0 0.00 0.00 0.00 35 1004.3
20260504184510 80 225 6.0 7.0 0.00 0.00 0.00 34 1004.2
20260504184006 79 220 7.0 9.0 0.00 0.00 0.00 36 1004.3
20260504183503 80 292 9.0 10.0 0.00 0.00 0.00 38 1004.4
20260504183001 80 239 4.0 4.0 0.00 0.00 0.00 37 1004.1
20260504182457 79 281 5.0 6.0 0.00 0.00 0.00 36 1004.4
20260504181955 79 205 7.0 8.0 0.00 0.00 0.00 35 1004.6
20260504181452 79 270 6.0 8.0 0.00 0.00 0.00 36 1004.3
20260504180950 78 257 6.0 10.0 0.00 0.00 0.00 37 1004.3
20260504180449 78 207 8.0 10.0 0.00 0.00 0.00 37 1004.5
20260504175947 78 225 7.0 10.0 0.00 0.00 0.00 38 1004.3
20260504175443 79 239 10.0 11.0 0.00 0.00 0.00 37 1004.4
20260504174941 78 231 6.0 8.0 0.00 0.00 0.00 40 1004.6
20260504174439 78 241 4.0 4.0 0.00 0.00 0.00 40 1004.6
20260504173936 77 248 5.0 6.0 0.00 0.00 0.00 40 1004.5
20260504173432 77 245 8.0 10.0 0.00 0.00 0.00 39 1004.7
20260504172930 77 239 8.0 9.0 0.00 0.00 0.00 40 1004.6
20260504172425 77 242 6.0 7.0 0.00 0.00 0.00 40 1004.8
20260504171922 77 203 7.0 9.0 0.00 0.00 0.00 40 1004.8
20260504171419 76 230 5.0 6.0 0.00 0.00 0.00 40 1004.6
20260504170916 76 239 6.0 6.0 0.00 0.00 0.00 41 1004.8
20260504170413 76 243 7.0 8.0 0.00 0.00 0.00 41 1004.7
20260504160331 72 254 6.0 6.0 0.00 0.00 0.00 46 1005.1
20260504150756 71 251 8.0 10.0 0.00 0.00 0.00 45 1005.1
20260504150253 71 226 4.0 7.0 0.00 0.00 0.00 47 1004.9
20260504141223 67 245 7.0 8.0 0.00 0.00 0.00 52 1005.2
20260504140719 67 209 9.0 9.0 0.00 0.00 0.00 52 1005.2
20260504140215 66 267 4.0 6.0 0.00 0.00 0.00 55 1005.2
20260504130643 60 210 3.0 4.0 0.00 0.00 0.00 64 1005.5
20260504130140 59 205 2.0 2.0 0.00 0.00 0.00 66 1005.5
20260504120104 54 183 3.0 3.0 0.00 0.00 0.00 69 1005.8
20260504110531 53 126 1.0 1.0 0.00 0.00 0.00 67 1005.7
20260504100453 51 149 0.0 1.0 0.00 0.00 0.00 73 1006.4
20260504081846 49 204 0.0 0.0 0.00 0.00 0.00 86 1008.1
20260504081343 48 204 1.0 1.0 0.00 0.00 0.00 88 1008.2
20260504080839 48 204 0.0 0.0 0.00 0.00 0.00 87 1008.3
20260504080336 49 204 1.0 1.0 0.00 0.00 0.00 86 1008.2
20260504070303 52 164 0.0 0.0 0.00 0.00 0.00 74 1009.1
20260504060224 52 164 0.0 0.0 0.00 0.00 0.00 81 1010.1
20260504050652 53 211 1.0 1.0 0.00 0.00 0.00 77 1010.1
20260504050149 54 212 0.0 0.0 0.00 0.00 0.00 72 1010.2
20260504045646 54 212 0.0 0.0 0.00 0.00 0.00 71 1010.4
20260504045146 54 211 0.0 0.0 0.00 0.00 0.00 71 1010.3
20260504044644 55 212 0.0 0.0 0.00 0.00 0.00 68 1010.3
20260504044140 56 211 0.0 0.0 0.00 0.00 0.00 66 1010.2
20260504043637 56 212 0.0 0.0 0.00 0.00 0.00 63 1010.4
20260504043135 55 212 0.0 0.0 0.00 0.00 0.00 65 1010.3
20260504042632 55 212 0.0 0.0 0.00 0.00 0.00 67 1010.3
20260504042129 55 212 0.0 0.0 0.00 0.00 0.00 68 1010.4
20260504041624 54 211 0.0 0.0 0.00 0.00 0.00 69 1010.5
20260504041121 54 211 0.0 0.0 0.00 0.00 0.00 70 1010.4
20260504040618 55 212 0.0 0.0 0.00 0.00 0.00 71 1010.4
20260504040115 56 212 0.0 0.0 0.00 0.00 0.00 68 1010.7
20260504035612 56 212 0.0 0.0 0.00 0.00 0.00 64 1010.7
20260504035108 56 212 0.0 0.0 0.00 0.00 0.00 63 1010.7
20260504034606 56 212 1.0 0.0 0.00 0.00 0.00 64 1010.6
20260504034103 57 212 0.0 0.0 0.00 0.00 0.00 63 1010.9
20260504033601 57 212 0.0 0.0 0.00 0.00 0.00 60 1010.8
20260504033057 57 212 1.0 1.0 0.00 0.00 0.00 60 1011.0
20260504032554 57 212 1.0 1.0 0.00 0.00 0.00 61 1011.0
20260504032051 58 237 2.0 2.0 0.00 0.00 0.00 57 1011.2
20260504031548 59 263 2.0 2.0 0.00 0.00 0.00 57 1011.1
20260504031044 60 264 0.0 0.0 0.00 0.00 0.00 52 1011.2
20260504030542 59 264 1.0 1.0 0.00 0.00 0.00 53 1011.2
20260504030038 57 264 1.0 1.0 0.00 0.00 0.00 60 1011.1
20260504025535 58 23 2.0 1.0 0.00 0.00 0.00 63 1011.0
20260504025032 59 346 2.0 2.0 0.00 0.00 0.00 52 1011.2
20260504024529 58 275 2.0 1.0 0.00 0.00 0.00 59 1011.4
20260504024026 59 275 0.0 0.0 0.00 0.00 0.00 61 1010.9
20260504023522 58 275 0.0 0.0 0.00 0.00 0.00 62 1011.0
20260504023018 58 275 1.0 1.0 0.00 0.00 0.00 62 1011.3
20260504022514 58 274 0.0 0.0 0.00 0.00 0.00 64 1011.1
20260504022011 58 275 1.0 1.0 0.00 0.00 0.00 67 1011.1
20260504021509 59 274 0.0 0.0 0.00 0.00 0.00 64 1011.3
20260504021005 60 274 0.0 0.0 0.00 0.00 0.00 59 1011.2
20260504020502 61 275 0.0 0.0 0.00 0.00 0.00 51 1011.1
20260504015959 63 275 0.0 0.0 0.00 0.00 0.00 53 1011.3
20260504015455 65 274 0.0 0.0 0.00 0.00 0.00 39 1011.2
20260504014951 63 274 1.0 1.0 0.00 0.00 0.00 42 1011.2
20260504014447 64 274 1.0 1.0 0.00 0.00 0.00 48 1011.5
20260504013944 64 274 1.0 1.0 0.00 0.00 0.00 45 1011.0
20260504013443 64 274 0.0 0.0 0.00 0.00 0.00 43 1011.3
20260504012938 64 274 1.0 1.0 0.00 0.00 0.00 42 1011.5
20260504012437 65 274 0.0 0.0 0.00 0.00 0.00 47 1011.3
20260504011934 67 274 0.0 0.0 0.00 0.00 0.00 39 1011.1
20260504011430 67 274 0.0 0.0 0.00 0.00 0.00 37 1011.2
20260504010926 67 271 2.0 2.0 0.00 0.00 0.00 36 1011.5
20260504010422 68 256 1.0 1.0 0.00 0.00 0.00 37 1011.5
20260504005919 68 256 2.0 1.0 0.00 0.00 0.00 36 1011.2
20260504005415 68 255 2.0 2.0 0.00 0.00 0.00 36 1011.3
20260504004913 69 269 1.0 1.0 0.00 0.00 0.00 35 1011.2
20260504004411 69 269 0.0 0.0 0.00 0.00 0.00 34 1011.2
20260504003907 69 269 2.0 2.0 0.00 0.00 0.00 35 1011.3
20260504003404 69 259 1.0 1.0 0.00 0.00 0.00 34 1011.2
20260504002900 69 259 2.0 3.0 0.00 0.00 0.00 34 1011.5
20260504002357 70 255 2.0 2.0 0.00 0.00 0.00 34 1011.9
20260504001855 70 253 1.0 1.0 0.00 0.00 0.00 34 1011.9
20260504001352 71 270 2.0 2.0 0.00 0.00 0.00 34 1011.8
20260504000848 71 260 3.0 3.0 0.00 0.00 0.00 33 1011.5
20260504000346 71 219 2.0 1.0 0.00 0.00 0.00 33 1011.3
20260503235843 71 274 3.0 3.0 0.00 0.00 0.00 32 1011.7
20260503235341 70 256 2.0 2.0 0.00 0.00 0.00 32 1011.8
20260503234838 71 270 3.0 3.0 0.00 0.00 0.00 33 1011.9
20260503234336 71 278 3.0 3.0 0.00 0.00 0.00 32 1011.5
20260503233833 71 292 4.0 4.0 0.00 0.00 0.00 32 1011.9
20260503233329 71 292 5.0 6.0 0.00 0.00 0.00 32 1012.1
20260503232826 71 294 5.0 6.0 0.00 0.00 0.00 33 1012.2
20260503232323 72 294 3.0 3.0 0.00 0.00 0.00 31 1011.9
20260503231821 72 294 4.0 4.0 0.00 0.00 0.00 30 1012.0
20260503231318 73 258 6.0 8.0 0.00 0.00 0.00 28 1012.0
20260503230814 73 284 5.0 7.0 0.00 0.00 0.00 31 1012.1
20260503230311 72 296 5.0 6.0 0.00 0.00 0.00 30 1012.1
20260503225809 72 305 8.0 9.0 0.00 0.00 0.00 30 1012.2
20260503225304 72 291 10.0 11.0 0.00 0.00 0.00 30 1012.1
20260503224801 73 306 3.0 3.0 0.00 0.00 0.00 32 1012.0
20260503224258 73 297 3.0 3.0 0.00 0.00 0.00 31 1011.9
20260503223755 73 280 7.0 9.0 0.00 0.00 0.00 30 1012.2
20260503223253 72 327 5.0 6.0 0.00 0.00 0.00 32 1012.1
20260503222749 72 304 5.0 6.0 0.00 0.00 0.00 33 1012.0
20260503222247 72 291 3.0 3.0 0.00 0.00 0.00 29 1011.7
20260503221745 72 328 7.0 8.0 0.00 0.00 0.00 29 1012.0
20260503221243 73 352 6.0 7.0 0.00 0.00 0.00 28 1012.1
20260503220739 73 0 6.0 7.0 0.00 0.00 0.00 29 1012.1
20260503220236 73 327 5.0 6.0 0.00 0.00 0.00 28 1012.0
20260503215733 73 295 6.0 7.0 0.00 0.00 0.00 30 1011.9
20260503215230 73 309 6.0 7.0 0.00 0.00 0.00 29 1012.2
20260503214728 73 310 7.0 8.0 0.00 0.00 0.00 31 1012.2
20260503214224 73 320 6.0 9.0 0.00 0.00 0.00 32 1012.0
20260503213723 73 323 4.0 4.0 0.00 0.00 0.00 31 1012.1
20260503213220 73 304 7.0 8.0 0.00 0.00 0.00 31 1012.2
20260503212716 73 291 10.0 13.0 0.00 0.00 0.00 30 1012.1
20260503212214 72 308 3.0 4.0 0.00 0.00 0.00 31 1012.2
20260503211712 73 302 8.0 8.0 0.00 0.00 0.00 29 1012.3
20260503211207 73 341 7.0 9.0 0.00 0.00 0.00 32 1012.4
20260503210703 73 308 5.0 6.0 0.00 0.00 0.00 30 1012.3
20260503210201 73 281 5.0 6.0 0.00 0.00 0.00 30 1012.3
20260503205655 73 270 4.0 4.0 0.00 0.00 0.00 29 1012.5